Wind_Speed
40 40 41 41 41 41 41 42 42 41 41 42 43 44 46 46 43 38 36 37 37 37 37 37 39 41 41 39 39 40 43 46 48 52 55 57 58 58 58 57 56 55
42 43 43 42 42 41 41 42 42 42 41 42 44 45 47 46 40 37 37 37 38 39 38 38 38 39 39 38 37 40 44 47 50 53 56 58 60 60 59 57 55 55
44 44 44 43 43 42 41 42 43 43 43 44 45 47 48 45 39 36 38 39 39 39 39 38 38 40 40 39 39 42 47 50 53 55 57 60 60 60 59 57 56 57
46 45 45 44 44 43 43 44 45 46 47 47 48 48 46 43 39 38 40 40 38 39 39 39 41 44 46 45 47 50 52 54 57 58 59 61 62 61 60 59 59 60
47 46 46 45 45 44 44 46 49 50 50 49 50 49 46 44 43 42 41 40 38 39 39 40 44 48 49 50 52 54 55 58 60 61 62 64 65 63 62 61 61 62
47 47 46 46 46 46 47 49 51 51 50 51 51 49 48 49 49 46 43 41 39 39 40 43 49 52 51 52 53 55 57 60 62 63 65 66 65 63 62 62 63 63
48 47 47 47 47 49 50 52 52 52 51 51 51 49 48 50 50 48 45 43 40 40 42 46 51 52 53 54 54 56 58 61 64 66 66 66 64 63 63 64 65 65
48 48 49 49 49 51 52 53 53 52 52 52 52 49 48 49 51 49 45 42 41 42 44 47 50 52 53 54 55 57 60 63 66 66 66 66 65 65 66 67 67 68
48 50 51 52 52 53 54 55 54 54 53 52 52 50 48 50 52 48 43 41 42 43 43 46 51 53 54 55 56 58 62 65 67 67 67 67 67 68 69 71 72 74
48 51 54 55 55 55 56 56 55 55 54 52 50 48 47 50 50 46 42 41 41 42 43 47 52 54 55 57 58 61 65 67 68 68 68 68 69 71 72 73 75 77
50 53 56 57 57 57 57 57 57 56 54 52 48 44 45 48 46 42 40 40 41 42 45 49 53 54 56 59 62 65 67 68 68 68 68 70 71 72 74 76 78 80
54 54 56 57 58 59 57 57 56 56 54 50 46 43 44 44 44 43 44 44 43 44 46 49 53 55 59 63 66 68 68 68 68 69 70 72 73 76 78 80 82 84
56 56 56 57 58 58 57 56 55 54 51 48 45 46 46 47 51 51 49 48 45 44 46 51 56 60 63 66 68 69 70 71 72 73 75 76 78 81 83 85 87 88
57 56 55 55 54 55 55 54 52 51 50 48 46 47 50 57 61 56 51 49 46 46 52 59 63 67 69 71 72 73 74 75 76 78 80 82 84 85 87 89 90 91
57 55 52 50 49 50 52 53 50 50 51 50 46 45 48 53 55 51 50 50 51 55 62 66 69 72 74 75 77 78 79 80 81 83 85 86 87 89 90 91 91 91
56 53 50 46 42 42 49 52 50 48 49 49 45 40 39 41 43 46 51 55 59 65 70 71 74 76 78 79 80 81 82 83 85 87 88 89 90 91 92 92 92 93
56 54 51 47 40 38 44 48 48 48 49 50 48 39 35 40 46 52 58 64 68 71 73 75 77 78 80 82 83 84 85 86 88 89 90 91 92 92 93 94 94 94
56 55 53 51 46 42 43 42 44 48 49 50 49 42 39 45 52 58 63 67 70 72 75 78 80 81 83 84 85 86 86 87 89 91 92 93 94 94 95 95 94 92
57 57 56 55 53 50 48 45 46 49 47 47 49 48 47 51 55 59 64 68 71 74 77 80 82 83 84 85 86 86 87 89 91 92 93 95 96 96 95 94 91 88
57 59 59 59 58 57 55 52 51 51 48 46 50 53 52 53 58 63 68 72 75 78 80 82 82 83 84 86 87 87 89 91 92 93 94 95 96 95 93 90 87 85
59 60 61 61 61 61 61 58 56 55 51 48 52 56 55 57 63 68 73 76 78 80 82 83 85 86 87 88 89 90 91 92 91 91 91 91 92 92 88 84 83 85
61 63 63 64 64 65 65 63 60 60 57 54 56 58 59 61 66 70 75 78 80 82 84 86 87 88 89 89 90 89 89 89 89 88 87 88 89 86 81 80 83 88
64 65 65 66 67 67 67 65 63 62 60 58 57 59 60 63 66 70 73 76 78 80 82 84 86 88 89 89 89 89 89 87 87 87 85 82 79 78 80 85 89 92
67 68 68 68 68 69 68 67 65 63 60 58 58 58 59 62 65 68 71 73 75 77 80 82 85 87 89 89 89 89 87 85 84 84 80 74 74 79 86 89 91 93
71 71 70 69 69 71 70 68 66 62 58 56 55 56 58 60 63 66 69 72 75 78 81 82 84 87 88 86 84 83 81 78 79 79 78 78 82 86 89 90 91 92
74 73 73 72 71 72 71 68 66 62 56 51 52 55 57 59 62 65 68 72 75 77 79 80 82 83 80 74 73 75 76 76 78 80 82 85 88 89 90 92 92 91
Wind_Direction
315 316 317 317 319 320 321 322 322 323 324 324 324 323 322 322 320 317 319 323 323 320 317 315 315 316 317 317 316 317 317 318 318 319 320 322 323 323 322 322 322 321
314 315 316 317 319 321 322 322 321 321 322 322 323 322 321 321 318 314 315 317 318 317 311 308 313 318 318 315 312 310 310 311 315 316 318 320 321 321 320 320 320 319
312 313 315 317 318 321 322 320 319 318 319 320 321 322 321 320 315 310 307 308 312 311 305 303 311 316 316 312 308 306 307 309 312 315 317 319 320 319 318 318 318 318
311 313 315 317 319 320 319 318 316 317 319 321 324 324 322 319 315 310 304 302 305 304 300 300 306 310 310 308 306 306 307 308 312 315 317 318 318 317 316 316 316 317
310 313 316 318 318 317 316 315 316 318 320 322 325 326 323 320 317 314 310 305 302 300 297 298 303 306 306 305 305 305 306 308 312 314 315 316 317 315 315 315 315 315
310 313 315 316 314 314 314 315 317 320 321 322 325 326 324 320 317 314 311 307 302 297 294 297 302 304 304 304 304 306 308 310 312 313 314 315 315 314 313 313 314 314
311 312 312 312 312 313 314 315 318 320 320 321 323 324 322 318 314 311 309 306 302 297 295 298 302 302 303 303 305 307 309 310 312 313 313 313 313 313 312 312 313 313
309 308 308 310 311 312 313 315 318 318 319 320 323 323 320 316 313 310 307 304 300 298 298 301 302 300 301 303 305 308 308 309 311 313 313 312 312 311 311 311 311 312
307 305 307 309 310 312 314 315 316 317 318 320 322 321 317 314 311 306 302 300 298 298 301 301 298 298 301 304 306 307 307 309 310 311 311 311 310 309 309 309 310 311
302 303 306 308 309 312 313 313 314 315 316 318 319 318 314 312 308 301 298 299 298 297 295 293 295 300 304 306 307 307 307 308 309 309 309 308 308 308 307 308 309 310
299 301 304 307 309 311 312 311 312 314 315 315 315 314 315 315 309 300 297 298 295 292 291 293 299 304 306 306 305 305 306 306 307 307 307 307 307 307 307 307 308 310
299 301 304 307 309 310 310 310 312 313 313 313 312 311 315 317 310 299 295 296 295 293 295 299 302 304 303 303 304 304 304 304 304 305 305 306 306 307 307 308 309 311
299 302 305 308 308 309 309 309 310 311 310 310 311 310 310 312 310 300 293 294 295 292 294 298 300 302 303 304 305 305 304 303 304 304 305 307 307 308 309 309 310 312
301 304 306 307 307 309 309 308 308 308 308 308 308 308 307 308 308 300 289 289 291 290 293 295 298 302 304 305 305 304 303 304 304 306 307 308 308 308 309 310 311 311
302 304 305 306 309 311 307 305 306 305 305 305 303 306 308 307 303 295 287 288 290 291 293 295 297 301 303 304 304 303 303 304 305 306 307 307 307 307 308 309 310 310
302 302 303 305 309 308 301 301 304 303 302 301 300 306 311 304 297 292 289 289 289 290 292 294 296 299 301 302 303 303 303 304 304 304 304 304 305 306 306 307 308 309
301 301 301 302 303 299 294 299 303 301 298 296 295 298 299 292 289 289 287 286 287 289 291 294 296 297 299 300 300 301 303 303 302 302 302 303 304 305 306 307 308 309
300 299 300 300 300 297 295 297 297 293 291 290 288 285 281 280 282 282 283 284 286 287 290 293 294 296 297 298 298 300 301 301 300 301 302 303 303 305 306 306 307 309
298 298 299 299 299 298 297 295 293 290 289 289 286 280 277 276 276 277 280 282 284 286 289 291 293 294 295 296 297 298 299 299 300 301 302 302 303 304 305 305 307 309
296 297 298 298 299 299 298 296 295 293 291 289 286 282 279 276 272 274 278 281 284 286 289 290 292 294 295 295 296 297 298 299 299 300 301 301 302 302 303 304 306 307
295 296 297 298 298 298 298 297 296 294 291 287 283 281 277 273 272 275 279 282 284 287 289 290 292 293 294 295 295 296 297 298 299 300 300 301 301 302 303 303 304 305
295 296 296 297 297 297 297 297 296 295 292 289 284 280 277 275 275 276 279 281 284 286 288 289 290 291 292 293 294 295 297 298 299 300 301 302 302 302 303 303 304 307
295 295 296 296 296 296 296 296 296 295 293 290 286 282 280 279 278 279 279 281 283 285 287 288 290 291 291 292 294 295 297 298 299 300 301 303 303 303 304 305 307 308
295 295 295 296 295 295 295 296 296 295 294 292 287 283 279 278 279 280 282 283 284 286 287 289 290 291 292 294 296 296 297 298 298 299 300 300 299 301 304 306 307 307
294 294 295 296 296 295 296 297 296 295 294 291 286 281 278 278 279 281 282 284 284 284 286 288 290 291 293 296 296 295 295 296 296 297 298 298 299 302 305 306 306 307
294 295 296 296 296 296 296 296 296 296 293 288 283 281 280 281 282 282 283 284 284 285 286 288 290 292 295 296 295 294 294 294 296 298 299 300 302 303 304 305 307 311
Height
10946 10945 10944 10943 10942 10940 10938 10936 10933 10931 10928 10926 10923 10920 10917 10914 10912 10910 10909 10907 10906 10904 10901 10898 10896 10894 10892 10891 10889 10887 10885 10883 10880 10877 10874 10871 10869 10866 10863 10860 10857 10853
10942 10941 10940 10939 10938 10937 10935 10933 10930 10927 10925 10923 10921 10918 10914 10911 10909 10907 10905 10903 10901 10899 10896 10894 10892 10890 10889 10887 10885 10884 10881 10878 10876 10873 10870 10867 10864 10861 10858 10855 10852 10849
10937 10937 10936 10935 10934 10933 10931 10928 10925 10923 10921 10919 10917 10914 10911 10908 10906 10903 10901 10898 10897 10895 10892 10890 10888 10887 10885 10884 10882 10879 10877 10874 10871 10869 10865 10862 10859 10856 10853 10850 10847 10843
10933 10932 10932 10931 10929 10928 10925 10922 10919 10917 10916 10914 10912 10909 10906 10903 10901 10899 10896 10894 10892 10890 10888 10886 10884 10882 10881 10879 10877 10874 10871 10869 10866 10863 10860 10857 10854 10850 10847 10844 10841 10838
10929 10928 10927 10926 10923 10921 10919 10916 10914 10912 10910 10908 10906 10903 10900 10898 10896 10894 10891 10889 10887 10885 10883 10882 10880 10878 10876 10873 10871 10868 10866 10863 10860 10857 10854 10851 10848 10844 10841 10838 10835 10832
10925 10924 10922 10920 10917 10915 10914 10911 10909 10907 10905 10902 10900 10897 10894 10892 10890 10888 10886 10883 10881 10880 10878 10877 10874 10871 10869 10867 10864 10862 10860 10857 10854 10851 10849 10845 10842 10839 10835 10832 10830 10827
10921 10919 10917 10914 10911 10909 10908 10907 10905 10903 10900 10897 10895 10892 10890 10887 10884 10882 10880 10878 10876 10874 10873 10871 10868 10865 10863 10860 10858 10856 10853 10850 10848 10845 10842 10839 10836 10832 10829 10826 10823 10820
10916 10912 10911 10909 10907 10905 10903 10902 10901 10898 10895 10892 10890 10888 10885 10882 10879 10876 10874 10872 10870 10869 10867 10865 10861 10859 10857 10855 10852 10850 10847 10844 10841 10838 10835 10832 10829 10826 10822 10819 10816 10813
10910 10905 10904 10904 10903 10902 10899 10897 10895 10892 10890 10887 10885 10882 10879 10876 10873 10870 10868 10866 10864 10862 10861 10858 10854 10852 10851 10848 10846 10844 10841 10837 10834 10831 10828 10825 10822 10819 10815 10812 10808 10805
10906 10901 10900 10899 10898 10898 10895 10892 10889 10887 10884 10882 10880 10877 10873 10870 10867 10864 10863 10860 10858 10856 10854 10851 10848 10846 10844 10842 10839 10837 10834 10831 10827 10824 10821 10818 10815 10811 10808 10805 10801 10798
10903 10899 10896 10894 10893 10892 10890 10886 10884 10882 10879 10876 10874 10871 10868 10864 10861 10858 10856 10854 10852 10851 10848 10844 10842 10840 10838 10836 10833 10830 10827 10824 10820 10817 10814 10811 10807 10804 10801 10798 10794 10791
10898 10896 10894 10891 10888 10885 10883 10880 10878 10876 10873 10870 10867 10865 10862 10858 10855 10852 10850 10848 10847 10845 10843 10840 10838 10835 10833 10830 10827 10823 10820 10817 10814 10811 10808 10804 10801 10797 10794 10790 10787 10783
10892 10892 10891 10888 10884 10879 10876 10874 10872 10870 10867 10865 10862 10859 10856 10853 10851 10847 10844 10843 10842 10840 10838 10836 10833 10830 10827 10824 10821 10818 10814 10811 10807 10804 10801 10797 10793 10790 10786 10783 10779 10775
10887 10886 10886 10884 10881 10877 10873 10869 10867 10864 10862 10860 10859 10855 10852 10849 10846 10843 10840 10839 10837 10835 10833 10830 10826 10824 10821 10818 10815 10812 10808 10804 10800 10796 10792 10789 10785 10782 10778 10775 10771 10767
10881 10881 10881 10880 10879 10876 10868 10862 10862 10860 10857 10855 10854 10852 10848 10844 10841 10839 10837 10835 10833 10829 10826 10823 10820 10817 10815 10812 10809 10805 10801 10796 10791 10787 10784 10780 10777 10774 10770 10767 10763 10759
10875 10875 10875 10876 10879 10877 10865 10857 10857 10856 10853 10851 10850 10848 10844 10839 10837 10835 10833 10830 10827 10823 10819 10816 10813 10810 10808 10805 10801 10797 10793 10787 10782 10778 10775 10772 10769 10766 10763 10759 10755 10752
10869 10868 10868 10869 10874 10875 10866 10858 10854 10850 10848 10847 10846 10844 10840 10834 10831 10829 10826 10822 10819 10815 10812 10809 10806 10803 10800 10796 10792 10789 10784 10778 10773 10770 10767 10765 10761 10758 10755 10751 10748 10744
10862 10860 10860 10861 10863 10864 10862 10860 10856 10849 10845 10843 10840 10840 10836 10828 10824 10821 10817 10814 10811 10808 10805 10802 10799 10796 10792 10788 10784 10780 10776 10770 10765 10762 10759 10755 10752 10750 10746 10742 10740 10737
10855 10853 10852 10852 10853 10853 10853 10854 10852 10846 10841 10837 10833 10832 10829 10822 10817 10813 10809 10807 10804 10801 10798 10794 10791 10788 10784 10780 10777 10773 10768 10763 10758 10754 10750 10746 10743 10741 10737 10734 10731 10728
10849 10847 10846 10844 10844 10843 10843 10843 10843 10840 10837 10834 10828 10824 10820 10815 10810 10806 10803 10800 10797 10794 10790 10786 10783 10779 10776 10771 10768 10765 10761 10756 10751 10748 10743 10738 10734 10732 10730 10727 10724 10719
10843 10840 10839 10837 10836 10834 10833 10834 10834 10832 10830 10829 10824 10817 10812 10807 10804 10800 10796 10793 10790 10786 10782 10779 10775 10771 10767 10762 10759 10757 10753 10748 10744 10741 10737 10731 10727 10725 10723 10720 10717 10712
10837 10834 10832 10830 10828 10826 10824 10825 10825 10823 10821 10820 10815 10809 10805 10802 10799 10796 10791 10787 10783 10779 10775 10771 10766 10762 10758 10753 10750 10748 10744 10738 10735 10732 10728 10723 10718 10716 10714 10711 10708 10704
10829 10826 10825 10824 10822 10818 10816 10816 10816 10814 10812 10810 10806 10802 10799 10796 10792 10789 10785 10781 10777 10772 10767 10763 10758 10752 10748 10744 10742 10739 10734 10729 10724 10721 10719 10715 10709 10706 10704 10702 10698 10694
10820 10819 10818 10817 10814 10810 10808 10808 10808 10806 10804 10802 10798 10795 10792 10788 10785 10781 10777 10774 10770 10765 10760 10755 10749 10742 10738 10735 10732 10728 10724 10721 10716 10712 10712 10709 10704 10699 10696 10693 10689 10684
10812 10811 10810 10809 10806 10801 10800 10800 10799 10798 10797 10794 10789 10786 10784 10781 10778 10774 10770 10766 10761 10756 10751 10747 10740 10734 10731 10728 10723 10717 10714 10712 10708 10705 10704 10700 10696 10692 10688 10682 10679 10674
10804 10802 10801 10799 10796 10792 10791 10792 10791 10790 10788 10784 10781 10778 10776 10774 10771 10766 10762 10757 10752 10747 10743 10738 10732 10727 10723 10719 10713 10708 10705 10703 10700 10698 10695 10690 10685 10681 10677 10672 10668 10664